Tracking 28335 objects as of 4-Dec-2023
HD Live streaming from Space Station
objects crossing your sky now

COSMOS 1300

Track COSMOS 1300 now!
10-day predictions
COSMOS 1300 is classified as:


NORAD ID: 12785
Int'l Code: 1981-082A
Perigee: 489.0 km
Apogee: 492.4 km
Inclination: 82.5 °
Period: 94.3 minutes
Semi major axis: 6861 km
RCS: 5.912 m2 (large)
Launch date: August 24, 1981
Source: Commonwealth of Independent States (former USSR) (CIS)
Launch site: PLESETSK MISSILE AND SPACE COMPLEX (PKMTR)
Your satellite tracking list
Your tracking list is empty




NASA's NSSDC Master Catalog

Two Line Element Set (TLE):
1 12785U 81082A   23338.15042712  .00012415  00000-0  46131-3 0  9994
2 12785  82.4993 251.7618 0002499  64.2744 295.8752 15.27419110310183
Source of the keplerian elements: AFSPC